Year,Month,Day,Hour,Minute,Value (Times are PST for temperature in C)
2019,11,29,00,00,2.60
2019,11,29,00,01,2.50
2019,11,29,00,02,2.50
2019,11,29,00,03,2.50
2019,11,29,00,04,2.60
2019,11,29,00,05,2.60
2019,11,29,00,06,2.60
2019,11,29,00,07,2.60
2019,11,29,00,08,2.60
2019,11,29,00,09,2.50
2019,11,29,00,10,2.50
2019,11,29,00,11,2.50
2019,11,29,00,12,2.40
2019,11,29,00,13,2.40
2019,11,29,00,14,2.30
2019,11,29,00,15,2.30
2019,11,29,00,16,2.30
2019,11,29,00,17,2.20
2019,11,29,00,18,2.20
2019,11,29,00,19,2.20
2019,11,29,00,20,2.20
2019,11,29,00,21,2.20
2019,11,29,00,22,2.20
2019,11,29,00,23,2.20
2019,11,29,00,24,2.20
2019,11,29,00,25,2.20
2019,11,29,00,26,2.30
2019,11,29,00,27,2.30
2019,11,29,00,28,2.30
2019,11,29,00,29,2.40
2019,11,29,00,30,2.40
2019,11,29,00,31,2.50
2019,11,29,00,32,2.50
2019,11,29,00,33,2.50
2019,11,29,00,34,2.50
2019,11,29,00,35,2.50
2019,11,29,00,36,2.60
2019,11,29,00,37,2.60
2019,11,29,00,38,2.60
2019,11,29,00,39,2.60
2019,11,29,00,40,2.60
2019,11,29,00,41,2.60
2019,11,29,00,42,2.70
2019,11,29,00,43,2.70
2019,11,29,00,44,2.70
2019,11,29,00,45,2.70
2019,11,29,00,46,2.70
2019,11,29,00,47,2.80
2019,11,29,00,48,2.90
2019,11,29,00,49,2.90
2019,11,29,00,50,2.90
2019,11,29,00,51,2.90
2019,11,29,00,52,2.90
2019,11,29,00,53,2.90
2019,11,29,00,54,2.90
2019,11,29,00,55,2.90
2019,11,29,00,56,2.90
2019,11,29,00,57,2.90
2019,11,29,00,58,2.80
2019,11,29,00,59,2.80
2019,11,29,01,00,2.70
2019,11,29,01,01,2.70
2019,11,29,01,02,2.70
2019,11,29,01,03,2.70
2019,11,29,01,04,2.70
2019,11,29,01,05,2.70
2019,11,29,01,06,2.70
2019,11,29,01,07,2.70
2019,11,29,01,08,2.70
2019,11,29,01,09,2.70
2019,11,29,01,10,2.70
2019,11,29,01,11,2.70
2019,11,29,01,12,2.70
2019,11,29,01,13,2.70
2019,11,29,01,14,2.70
2019,11,29,01,15,2.70
2019,11,29,01,16,2.70
2019,11,29,01,17,2.70
2019,11,29,01,18,2.60
2019,11,29,01,19,2.60
2019,11,29,01,20,2.70
2019,11,29,01,21,2.70
2019,11,29,01,22,2.60
2019,11,29,01,23,2.60
2019,11,29,01,24,2.60
2019,11,29,01,25,2.60
2019,11,29,01,26,2.60
2019,11,29,01,27,2.50
2019,11,29,01,28,2.50
2019,11,29,01,29,2.50
2019,11,29,01,30,2.50
2019,11,29,01,31,2.50
2019,11,29,01,32,2.50
2019,11,29,01,33,2.40
2019,11,29,01,34,2.40
2019,11,29,01,35,2.40
2019,11,29,01,36,2.40
2019,11,29,01,37,2.40
2019,11,29,01,38,2.50
2019,11,29,01,39,2.50
2019,11,29,01,40,2.50
2019,11,29,01,41,2.50
2019,11,29,01,42,2.50
2019,11,29,01,43,2.50
2019,11,29,01,44,2.50
2019,11,29,01,45,2.40
2019,11,29,01,46,2.40
2019,11,29,01,47,2.30
2019,11,29,01,48,2.30
2019,11,29,01,49,2.30
2019,11,29,01,50,2.30
2019,11,29,01,51,2.30
2019,11,29,01,52,2.30
2019,11,29,01,53,2.20
2019,11,29,01,54,2.20
2019,11,29,01,55,2.20
2019,11,29,01,56,2.30
2019,11,29,01,57,2.30
2019,11,29,01,58,2.40
2019,11,29,01,59,2.50
2019,11,29,02,00,2.50
2019,11,29,02,01,2.60
2019,11,29,02,02,2.60
2019,11,29,02,03,2.70
2019,11,29,02,04,2.70
2019,11,29,02,05,2.70
2019,11,29,02,06,2.70
2019,11,29,02,07,2.70
2019,11,29,02,08,2.70
2019,11,29,02,09,2.70
2019,11,29,02,10,2.70
2019,11,29,02,11,2.70
2019,11,29,02,12,2.70
2019,11,29,02,13,2.70
2019,11,29,02,14,2.70
2019,11,29,02,15,2.60
2019,11,29,02,16,2.60
2019,11,29,02,17,2.60
2019,11,29,02,18,2.50
2019,11,29,02,19,2.50
2019,11,29,02,20,2.50
2019,11,29,02,21,2.50
2019,11,29,02,22,2.50
2019,11,29,02,23,2.40
2019,11,29,02,24,2.40
2019,11,29,02,25,2.40
2019,11,29,02,26,2.30
2019,11,29,02,27,2.30
2019,11,29,02,28,2.30
2019,11,29,02,29,2.30
2019,11,29,02,30,2.40
2019,11,29,02,31,2.40
2019,11,29,02,32,2.40
2019,11,29,02,33,2.40
2019,11,29,02,34,2.40
2019,11,29,02,35,2.40
2019,11,29,02,36,2.40
2019,11,29,02,37,2.40
2019,11,29,02,38,2.50
2019,11,29,02,39,2.50
2019,11,29,02,40,2.50
2019,11,29,02,41,2.50
2019,11,29,02,42,2.40
2019,11,29,02,43,2.40
2019,11,29,02,44,2.40
2019,11,29,02,45,2.40
2019,11,29,02,46,2.40
2019,11,29,02,47,2.50
2019,11,29,02,48,2.50
2019,11,29,02,49,2.50
2019,11,29,02,50,2.50
2019,11,29,02,51,2.50
2019,11,29,02,52,2.60
2019,11,29,02,53,2.60
2019,11,29,02,54,2.60
2019,11,29,02,55,2.50
2019,11,29,02,56,2.50
2019,11,29,02,57,2.50
2019,11,29,02,58,2.50
2019,11,29,02,59,2.40
2019,11,29,03,00,2.40
2019,11,29,03,01,2.30
2019,11,29,03,02,2.30
2019,11,29,03,03,2.30
2019,11,29,03,04,2.30
2019,11,29,03,05,2.30
2019,11,29,03,06,2.30
2019,11,29,03,07,2.20
2019,11,29,03,08,2.20
2019,11,29,03,09,2.20
2019,11,29,03,10,2.20
2019,11,29,03,11,2.20
2019,11,29,03,12,2.20
2019,11,29,03,13,2.20
2019,11,29,03,14,2.20
2019,11,29,03,15,2.20
2019,11,29,03,16,2.20
2019,11,29,03,17,2.20
2019,11,29,03,18,2.20
2019,11,29,03,19,2.20
2019,11,29,03,20,2.10
2019,11,29,03,21,2.10
2019,11,29,03,22,2.10
2019,11,29,03,23,2.00
2019,11,29,03,24,2.00
2019,11,29,03,25,2.00
2019,11,29,03,26,1.90
2019,11,29,03,27,1.90
2019,11,29,03,28,1.90
2019,11,29,03,29,1.90
2019,11,29,03,30,1.80
2019,11,29,03,31,1.80
2019,11,29,03,32,1.80
2019,11,29,03,33,1.80
2019,11,29,03,34,1.70
2019,11,29,03,35,1.70
2019,11,29,03,36,1.60
2019,11,29,03,37,1.60
2019,11,29,03,38,1.60
2019,11,29,03,39,1.60
2019,11,29,03,40,1.60
2019,11,29,03,41,1.60
2019,11,29,03,42,1.60
2019,11,29,03,43,1.60
2019,11,29,03,44,1.60
2019,11,29,03,45,1.50
2019,11,29,03,46,1.50
2019,11,29,03,47,1.50
2019,11,29,03,48,1.50
2019,11,29,03,49,1.50
2019,11,29,03,50,1.50
2019,11,29,03,51,1.50
2019,11,29,03,52,1.50
2019,11,29,03,53,1.50
2019,11,29,03,54,1.50
2019,11,29,03,55,1.50
2019,11,29,03,56,1.50
2019,11,29,03,57,1.50
2019,11,29,03,58,1.50
2019,11,29,03,59,1.40
2019,11,29,04,00,1.40
2019,11,29,04,01,1.40
2019,11,29,04,02,1.40
2019,11,29,04,03,1.30
2019,11,29,04,04,1.30
2019,11,29,04,05,1.30
2019,11,29,04,06,1.30
2019,11,29,04,07,1.30
2019,11,29,04,08,1.30
2019,11,29,04,09,1.20
2019,11,29,04,10,1.20
2019,11,29,04,11,1.20
2019,11,29,04,12,1.20
2019,11,29,04,13,1.20
2019,11,29,04,14,1.20
2019,11,29,04,15,1.10
2019,11,29,04,16,1.10
2019,11,29,04,17,1.10
2019,11,29,04,18,1.00
2019,11,29,04,19,1.00
2019,11,29,04,20,1.00
2019,11,29,04,21,1.00
2019,11,29,04,22,0.90
2019,11,29,04,23,0.90
2019,11,29,04,24,0.90
2019,11,29,04,25,0.80
2019,11,29,04,26,0.80
2019,11,29,04,27,0.80
2019,11,29,04,28,0.80
2019,11,29,04,29,0.80
2019,11,29,04,30,0.80
2019,11,29,04,31,0.80
2019,11,29,04,32,0.70
2019,11,29,04,33,0.70
2019,11,29,04,34,0.60
2019,11,29,04,35,0.60
2019,11,29,04,36,0.60
2019,11,29,04,37,0.60
2019,11,29,04,38,0.60
2019,11,29,04,39,0.60
2019,11,29,04,40,0.60
2019,11,29,04,41,0.60
2019,11,29,04,42,0.60
2019,11,29,04,43,0.50
2019,11,29,04,44,0.50
2019,11,29,04,45,0.50
2019,11,29,04,46,0.50
2019,11,29,04,47,0.40
2019,11,29,04,48,0.40
2019,11,29,04,49,0.40
2019,11,29,04,50,0.40
2019,11,29,04,51,0.40
2019,11,29,04,52,0.40
2019,11,29,04,53,0.30
2019,11,29,04,54,0.30
2019,11,29,04,55,0.30
2019,11,29,04,56,0.20
2019,11,29,04,57,0.20
2019,11,29,04,58,0.20
2019,11,29,04,59,0.10
2019,11,29,05,00,0.10
2019,11,29,05,01,0.10
2019,11,29,05,02,0.10
2019,11,29,05,03,0.10
2019,11,29,05,04,0.00
2019,11,29,05,05,-0.10
2019,11,29,05,06,-0.10
2019,11,29,05,07,-0.10
2019,11,29,05,08,-0.10
2019,11,29,05,09,-0.20
2019,11,29,05,10,-0.20
2019,11,29,05,11,-0.30
2019,11,29,05,12,-0.30
2019,11,29,05,13,-0.30
2019,11,29,05,14,-0.40
2019,11,29,05,15,-0.40
2019,11,29,05,16,-0.40
2019,11,29,05,17,-0.40
2019,11,29,05,18,-0.40
2019,11,29,05,19,-0.50
2019,11,29,05,20,-0.50
2019,11,29,05,21,-0.60
2019,11,29,05,22,-0.60
2019,11,29,05,23,-0.60
2019,11,29,05,24,-0.50
2019,11,29,05,25,-0.40
2019,11,29,05,26,-0.40
2019,11,29,05,27,-0.40
2019,11,29,05,28,-0.40
2019,11,29,05,29,-0.40
2019,11,29,05,30,-0.40
2019,11,29,05,31,-0.40
2019,11,29,05,32,-0.40
2019,11,29,05,33,-0.40
2019,11,29,05,34,-0.40
2019,11,29,05,35,-0.50
2019,11,29,05,36,-0.60
2019,11,29,05,37,-0.60
2019,11,29,05,38,-0.60
2019,11,29,05,39,-0.60
2019,11,29,05,40,-0.60
2019,11,29,05,41,-0.60
2019,11,29,05,42,-0.60
2019,11,29,05,43,-0.60
2019,11,29,05,44,-0.60
2019,11,29,05,45,-0.60
2019,11,29,05,46,-0.60
2019,11,29,05,47,-0.60
2019,11,29,05,48,-0.60
2019,11,29,05,49,-0.60
2019,11,29,05,50,-0.60
2019,11,29,05,51,-0.60
2019,11,29,05,52,-0.60
2019,11,29,05,53,-0.60
2019,11,29,05,54,-0.60
2019,11,29,05,55,-0.60
2019,11,29,05,56,-0.60
2019,11,29,05,57,-0.60
2019,11,29,05,58,-0.60
2019,11,29,05,59,-0.60
2019,11,29,06,00,-0.60
2019,11,29,06,01,-0.60
2019,11,29,06,02,-0.60
2019,11,29,06,03,-0.60
2019,11,29,06,04,-0.70
2019,11,29,06,05,-0.70
2019,11,29,06,06,-0.70
2019,11,29,06,07,-0.70
2019,11,29,06,08,-0.80
2019,11,29,06,09,-0.80
2019,11,29,06,10,-0.90
2019,11,29,06,11,-0.90
2019,11,29,06,12,-0.90
2019,11,29,06,13,-0.90
2019,11,29,06,14,-0.90
2019,11,29,06,15,-0.90
2019,11,29,06,16,-0.90
2019,11,29,06,17,-0.90
2019,11,29,06,18,-0.90
2019,11,29,06,19,-0.90
2019,11,29,06,20,-0.90
2019,11,29,06,21,-0.90
2019,11,29,06,22,-0.90
2019,11,29,06,23,-0.90
2019,11,29,06,24,-0.90
2019,11,29,06,25,-0.90
2019,11,29,06,26,-0.90
2019,11,29,06,27,-0.90
2019,11,29,06,28,-0.90
2019,11,29,06,29,-0.90
2019,11,29,06,30,-0.90
2019,11,29,06,31,-0.90
2019,11,29,06,32,-1.00
2019,11,29,06,33,-1.10
2019,11,29,06,34,-1.10
2019,11,29,06,35,-1.10
2019,11,29,06,36,-1.10
2019,11,29,06,37,-1.20
2019,11,29,06,38,-1.20
2019,11,29,06,39,-1.30
2019,11,29,06,40,-1.30
2019,11,29,06,41,-1.30
2019,11,29,06,42,-1.40
2019,11,29,06,43,-1.40
2019,11,29,06,44,-1.40
2019,11,29,06,45,-1.40
2019,11,29,06,46,-1.40
2019,11,29,06,47,-1.40
2019,11,29,06,48,-1.40
2019,11,29,06,49,-1.40
2019,11,29,06,50,-1.40
2019,11,29,06,51,-1.40
2019,11,29,06,52,-1.40
2019,11,29,06,53,-1.40
2019,11,29,06,54,-1.40
2019,11,29,06,55,-1.40
2019,11,29,06,56,-1.40
2019,11,29,06,57,-1.50
2019,11,29,06,58,-1.50
2019,11,29,06,59,-1.50
2019,11,29,07,00,-1.60
2019,11,29,07,01,-1.60
2019,11,29,07,02,-1.60
2019,11,29,07,03,-1.60
2019,11,29,07,04,-1.60
2019,11,29,07,05,-1.60
2019,11,29,07,06,-1.60
2019,11,29,07,07,-1.60
2019,11,29,07,08,-1.60
2019,11,29,07,09,-1.60
2019,11,29,07,10,-1.50
2019,11,29,07,11,-1.50
2019,11,29,07,12,-1.50
2019,11,29,07,13,-1.50
2019,11,29,07,14,-1.50
2019,11,29,07,15,-1.40
2019,11,29,07,16,-1.40
2019,11,29,07,17,-1.40
2019,11,29,07,18,-1.40
2019,11,29,07,19,-1.40
2019,11,29,07,20,-1.40
2019,11,29,07,21,-1.40
2019,11,29,07,22,-1.40
2019,11,29,07,23,-1.40
2019,11,29,07,24,-1.40
2019,11,29,07,25,-1.40
2019,11,29,07,26,-1.40
2019,11,29,07,27,-1.40
2019,11,29,07,28,-1.40
2019,11,29,07,29,-1.40
2019,11,29,07,30,-1.40
2019,11,29,07,31,-1.40
2019,11,29,07,32,-1.40
2019,11,29,07,33,-1.40
2019,11,29,07,34,-1.40
2019,11,29,07,35,-1.40
2019,11,29,07,36,-1.40
2019,11,29,07,37,-1.40
2019,11,29,07,38,-1.40
2019,11,29,07,39,-1.40
2019,11,29,07,40,-1.40
2019,11,29,07,41,-1.40
2019,11,29,07,42,-1.40
2019,11,29,07,43,-1.40
2019,11,29,07,44,-1.40
2019,11,29,07,45,-1.40
2019,11,29,07,46,-1.40
2019,11,29,07,47,-1.40
2019,11,29,07,48,-1.40
2019,11,29,07,49,-1.40
2019,11,29,07,50,-1.40
2019,11,29,07,51,-1.40
2019,11,29,07,52,-1.40
2019,11,29,07,53,-1.40
2019,11,29,07,54,-1.40
2019,11,29,07,55,-1.40
2019,11,29,07,56,-1.40
2019,11,29,07,57,-1.40
2019,11,29,07,58,-1.40
2019,11,29,07,59,-1.40
2019,11,29,08,00,-1.40
2019,11,29,08,01,-1.40
2019,11,29,08,02,-1.40
2019,11,29,08,03,-1.40
2019,11,29,08,04,-1.40
2019,11,29,08,05,-1.40
2019,11,29,08,06,-1.40
2019,11,29,08,07,-1.40
2019,11,29,08,08,-1.40
2019,11,29,08,09,-1.40
2019,11,29,08,10,-1.40
2019,11,29,08,11,-1.40
2019,11,29,08,12,-1.40
2019,11,29,08,13,-1.40
2019,11,29,08,14,-1.30
2019,11,29,08,15,-1.30
2019,11,29,08,16,-1.30
2019,11,29,08,17,-1.30
2019,11,29,08,18,-1.20
2019,11,29,08,19,-1.20
2019,11,29,08,20,-1.20
2019,11,29,08,21,-1.10
2019,11,29,08,22,-1.10
2019,11,29,08,23,-1.10
2019,11,29,08,24,-1.10
2019,11,29,08,25,-1.10
2019,11,29,08,26,-1.00
2019,11,29,08,27,-0.90
2019,11,29,08,28,-0.90
2019,11,29,08,29,-0.90
2019,11,29,08,30,-0.90
2019,11,29,08,31,-0.80
2019,11,29,08,32,-0.80
2019,11,29,08,33,-0.80
2019,11,29,08,34,-0.80
2019,11,29,08,35,-0.70
2019,11,29,08,36,-0.70
2019,11,29,08,37,-0.70
2019,11,29,08,38,-0.70
2019,11,29,08,39,-0.60
2019,11,29,08,40,-0.60
2019,11,29,08,41,-0.60
2019,11,29,08,42,-0.60
2019,11,29,08,43,-0.50
2019,11,29,08,44,-0.40
2019,11,29,08,45,-0.40
2019,11,29,08,46,-0.40
2019,11,29,08,47,-0.40
2019,11,29,08,48,-0.40
2019,11,29,08,49,-0.30
2019,11,29,08,50,-0.30
2019,11,29,08,51,-0.30
2019,11,29,08,52,-0.20
2019,11,29,08,53,-0.20
2019,11,29,08,54,-0.10
2019,11,29,08,55,-0.10
2019,11,29,08,56,-0.10
2019,11,29,08,57,0.00
2019,11,29,08,58,0.10
2019,11,29,08,59,0.10
2019,11,29,09,00,0.20
2019,11,29,09,01,0.20
2019,11,29,09,02,0.30
2019,11,29,09,03,0.40
2019,11,29,09,04,0.40
2019,11,29,09,05,0.50
2019,11,29,09,06,0.50
2019,11,29,09,07,0.60
2019,11,29,09,08,0.70
2019,11,29,09,09,0.80
2019,11,29,09,10,0.80
2019,11,29,09,11,0.90
2019,11,29,09,12,1.00
2019,11,29,09,13,1.00
2019,11,29,09,14,1.10
2019,11,29,09,15,1.20
2019,11,29,09,16,1.30
2019,11,29,09,17,1.30
2019,11,29,09,18,1.40
2019,11,29,09,19,1.50
2019,11,29,09,20,1.60
2019,11,29,09,21,1.60
2019,11,29,09,22,1.70
2019,11,29,09,23,1.80
2019,11,29,09,24,1.90
2019,11,29,09,25,2.00
2019,11,29,09,26,2.10
2019,11,29,09,27,2.20
2019,11,29,09,28,2.30
2019,11,29,09,29,2.30
2019,11,29,09,30,2.40
2019,11,29,09,31,2.50
2019,11,29,09,32,2.60
2019,11,29,09,33,2.70
2019,11,29,09,34,2.70
2019,11,29,09,35,2.80
2019,11,29,09,36,2.80
2019,11,29,09,37,2.90
2019,11,29,09,38,2.90
2019,11,29,09,39,2.90
2019,11,29,09,40,3.00
2019,11,29,09,41,3.10
2019,11,29,09,42,3.10
2019,11,29,09,43,3.10
2019,11,29,09,44,3.20
2019,11,29,09,45,3.10
2019,11,29,09,46,3.10
2019,11,29,09,47,3.10
2019,11,29,09,48,3.20
2019,11,29,09,49,3.20
2019,11,29,09,50,3.20
2019,11,29,09,51,3.20
2019,11,29,09,52,3.20
2019,11,29,09,53,3.20
2019,11,29,09,54,3.20
2019,11,29,09,55,3.30
2019,11,29,09,56,3.30
2019,11,29,09,57,3.30
2019,11,29,09,58,3.40
2019,11,29,09,59,3.40
2019,11,29,10,00,3.40
2019,11,29,10,01,3.50
2019,11,29,10,02,3.50
2019,11,29,10,03,3.60
2019,11,29,10,04,3.70
2019,11,29,10,05,3.70
2019,11,29,10,06,3.80
2019,11,29,10,07,3.80
2019,11,29,10,08,3.80
2019,11,29,10,09,3.80
2019,11,29,10,10,3.90
2019,11,29,10,11,3.90
2019,11,29,10,12,4.00
2019,11,29,10,13,4.00
2019,11,29,10,14,4.00
2019,11,29,10,15,4.00
2019,11,29,10,16,4.00
2019,11,29,10,17,4.10
2019,11,29,10,18,4.10
2019,11,29,10,19,4.10
2019,11,29,10,20,4.10
2019,11,29,10,21,4.20
2019,11,29,10,22,4.20
2019,11,29,10,23,4.20
2019,11,29,10,24,4.30
2019,11,29,10,25,4.40
2019,11,29,10,26,4.50
2019,11,29,10,27,4.50
2019,11,29,10,28,4.40
2019,11,29,10,29,4.40
2019,11,29,10,30,4.40
2019,11,29,10,31,4.30
2019,11,29,10,32,4.40
2019,11,29,10,33,4.40
2019,11,29,10,34,4.40
2019,11,29,10,35,4.30
2019,11,29,10,36,4.30
2019,11,29,10,37,4.30
2019,11,29,10,38,4.30
2019,11,29,10,39,4.30
2019,11,29,10,40,4.40
2019,11,29,10,41,4.40
2019,11,29,10,42,4.50
2019,11,29,10,43,4.50
2019,11,29,10,44,4.50
2019,11,29,10,45,4.60
2019,11,29,10,46,4.60
2019,11,29,10,47,4.60
2019,11,29,10,48,4.70
2019,11,29,10,49,4.80
2019,11,29,10,50,4.80
2019,11,29,10,51,4.90
2019,11,29,10,52,4.90
2019,11,29,10,53,4.90
2019,11,29,10,54,4.90
2019,11,29,10,55,4.90
2019,11,29,10,56,5.00
2019,11,29,10,57,5.10
2019,11,29,10,58,5.10
2019,11,29,10,59,5.10
2019,11,29,11,00,5.00
2019,11,29,11,01,4.90
2019,11,29,11,02,4.90
2019,11,29,11,03,4.90
2019,11,29,11,04,4.90
2019,11,29,11,05,4.90
2019,11,29,11,06,4.90
2019,11,29,11,07,4.90
2019,11,29,11,08,4.90
2019,11,29,11,09,4.90
2019,11,29,11,10,4.90
2019,11,29,11,11,5.10
2019,11,29,11,12,5.10
2019,11,29,11,13,5.10
2019,11,29,11,14,4.90
2019,11,29,11,15,4.90
2019,11,29,11,16,4.80
2019,11,29,11,17,4.70
2019,11,29,11,18,4.60
2019,11,29,11,19,4.60
2019,11,29,11,20,4.70
2019,11,29,11,21,4.70
2019,11,29,11,22,4.70
2019,11,29,11,23,4.70
2019,11,29,11,24,4.70
2019,11,29,11,25,4.70
2019,11,29,11,26,4.80
2019,11,29,11,27,4.80
2019,11,29,11,28,4.80
2019,11,29,11,29,4.70
2019,11,29,11,30,4.70
2019,11,29,11,31,4.80
2019,11,29,11,32,4.80
2019,11,29,11,33,4.90
2019,11,29,11,34,4.90
2019,11,29,11,35,4.90
2019,11,29,11,36,5.00
2019,11,29,11,37,4.90
2019,11,29,11,38,4.90
2019,11,29,11,39,4.90
2019,11,29,11,40,4.80
2019,11,29,11,41,4.80
2019,11,29,11,42,4.70
2019,11,29,11,43,4.70
2019,11,29,11,44,4.80
2019,11,29,11,45,4.90
2019,11,29,11,46,4.90
2019,11,29,11,47,4.90
2019,11,29,11,48,4.90
2019,11,29,11,49,4.90
2019,11,29,11,50,4.90
2019,11,29,11,51,4.80
2019,11,29,11,52,4.80
2019,11,29,11,53,4.80
2019,11,29,11,54,4.90
2019,11,29,11,55,4.90
2019,11,29,11,56,5.10
2019,11,29,11,57,5.00
2019,11,29,11,58,4.90
2019,11,29,11,59,4.90
2019,11,29,12,00,4.90
2019,11,29,12,01,4.80
2019,11,29,12,02,4.70
2019,11,29,12,03,4.70
2019,11,29,12,04,4.70
2019,11,29,12,05,4.70
2019,11,29,12,06,4.70
2019,11,29,12,07,4.70
2019,11,29,12,08,4.80
2019,11,29,12,09,4.90
2019,11,29,12,10,4.90
2019,11,29,12,11,4.90
2019,11,29,12,12,5.00
2019,11,29,12,13,5.10
2019,11,29,12,14,5.10
2019,11,29,12,15,5.10
2019,11,29,12,16,5.20
2019,11,29,12,17,5.20
2019,11,29,12,18,5.20
2019,11,29,12,19,5.30
2019,11,29,12,20,5.30
2019,11,29,12,21,5.20
2019,11,29,12,22,5.10
2019,11,29,12,23,5.10
2019,11,29,12,24,5.10
2019,11,29,12,25,5.10
2019,11,29,12,26,5.10
2019,11,29,12,27,5.20
2019,11,29,12,28,5.30
2019,11,29,12,29,5.30
2019,11,29,12,30,5.30
2019,11,29,12,31,5.30
2019,11,29,12,32,5.40
2019,11,29,12,33,5.50
2019,11,29,12,34,5.50
2019,11,29,12,35,5.50
2019,11,29,12,36,5.50
2019,11,29,12,37,5.60
2019,11,29,12,38,5.60
2019,11,29,12,39,5.50
2019,11,29,12,40,5.40
2019,11,29,12,41,5.30
2019,11,29,12,42,5.30
2019,11,29,12,43,5.20
2019,11,29,12,44,5.10
2019,11,29,12,45,5.10
2019,11,29,12,46,5.10
2019,11,29,12,47,5.10
2019,11,29,12,48,5.10
2019,11,29,12,49,5.10
2019,11,29,12,50,5.20
2019,11,29,12,51,5.30
2019,11,29,12,52,5.30
2019,11,29,12,53,5.30
2019,11,29,12,54,5.30
2019,11,29,12,55,5.30
2019,11,29,12,56,5.30
2019,11,29,12,57,5.30
2019,11,29,12,58,5.30
2019,11,29,12,59,5.30
2019,11,29,13,00,5.30
2019,11,29,13,01,5.30
2019,11,29,13,02,5.30
2019,11,29,13,03,5.40
2019,11,29,13,04,5.40
2019,11,29,13,05,5.40
2019,11,29,13,06,5.40
2019,11,29,13,07,5.50
2019,11,29,13,08,5.50
2019,11,29,13,09,5.40
2019,11,29,13,10,5.30
2019,11,29,13,11,5.30
2019,11,29,13,12,5.30
2019,11,29,13,13,5.30
2019,11,29,13,14,5.30
2019,11,29,13,15,5.30
2019,11,29,13,16,5.20
2019,11,29,13,17,5.30
2019,11,29,13,18,5.20
2019,11,29,13,19,5.10
2019,11,29,13,20,5.10
2019,11,29,13,21,5.10
2019,11,29,13,22,5.10
2019,11,29,13,23,5.10
2019,11,29,13,24,5.10
2019,11,29,13,25,5.10
2019,11,29,13,26,5.10
2019,11,29,13,27,5.10
2019,11,29,13,28,5.10
2019,11,29,13,29,5.10
2019,11,29,13,30,5.10
2019,11,29,13,31,5.10
2019,11,29,13,32,5.10
2019,11,29,13,33,5.20
2019,11,29,13,34,5.20
2019,11,29,13,35,5.20
2019,11,29,13,36,5.20
2019,11,29,13,37,5.10
2019,11,29,13,38,5.10
2019,11,29,13,39,5.00
2019,11,29,13,40,4.90
2019,11,29,13,41,4.90
2019,11,29,13,42,4.90
2019,11,29,13,43,5.00
2019,11,29,13,44,5.10
2019,11,29,13,45,5.10
2019,11,29,13,46,5.10
2019,11,29,13,47,5.10
2019,11,29,13,48,5.20
2019,11,29,13,49,5.20
2019,11,29,13,50,5.20
2019,11,29,13,51,5.20
2019,11,29,13,52,5.20
2019,11,29,13,53,5.20
2019,11,29,13,54,5.20
2019,11,29,13,55,5.30
2019,11,29,13,56,5.30
2019,11,29,13,57,5.30
2019,11,29,13,58,5.30
2019,11,29,13,59,5.30
2019,11,29,14,00,5.30
2019,11,29,14,01,5.30
2019,11,29,14,02,5.40
2019,11,29,14,03,5.40
2019,11,29,14,04,5.50
2019,11,29,14,05,5.50
2019,11,29,14,06,5.40
2019,11,29,14,07,5.40
2019,11,29,14,08,5.30
2019,11,29,14,09,5.30
2019,11,29,14,10,5.30
2019,11,29,14,11,5.30
2019,11,29,14,12,5.30
2019,11,29,14,13,5.30
2019,11,29,14,14,5.30
2019,11,29,14,15,5.30
2019,11,29,14,16,5.40
2019,11,29,14,17,5.50
2019,11,29,14,18,5.50
2019,11,29,14,19,5.60
2019,11,29,14,20,5.60
2019,11,29,14,21,5.60
2019,11,29,14,22,5.60
2019,11,29,14,23,5.50
2019,11,29,14,24,5.40
2019,11,29,14,25,5.30
2019,11,29,14,26,5.30
2019,11,29,14,27,5.30
2019,11,29,14,28,5.30
2019,11,29,14,29,5.30
2019,11,29,14,30,5.30
2019,11,29,14,31,5.30
2019,11,29,14,32,5.30
2019,11,29,14,33,5.30
2019,11,29,14,34,5.30
2019,11,29,14,35,5.30
2019,11,29,14,36,5.30
2019,11,29,14,37,5.30
2019,11,29,14,38,5.30
2019,11,29,14,39,5.30
2019,11,29,14,40,5.30
2019,11,29,14,41,5.30
2019,11,29,14,42,5.30
2019,11,29,14,43,5.30
2019,11,29,14,44,5.30
2019,11,29,14,45,5.30
2019,11,29,14,46,5.30
2019,11,29,14,47,5.30
2019,11,29,14,48,5.30
2019,11,29,14,49,5.30
2019,11,29,14,50,5.30
2019,11,29,14,51,5.30
2019,11,29,14,52,5.30
2019,11,29,14,53,5.30
2019,11,29,14,54,5.30
2019,11,29,14,55,5.30
2019,11,29,14,56,5.30
2019,11,29,14,57,5.30
2019,11,29,14,58,5.30
2019,11,29,14,59,5.30
2019,11,29,15,00,5.30
2019,11,29,15,01,5.30
2019,11,29,15,02,5.30
2019,11,29,15,03,5.30
2019,11,29,15,04,5.30
2019,11,29,15,05,5.40
2019,11,29,15,06,5.40
2019,11,29,15,07,5.50
2019,11,29,15,08,5.50
2019,11,29,15,09,5.50
2019,11,29,15,10,5.50
2019,11,29,15,11,5.50
2019,11,29,15,12,5.60
2019,11,29,15,13,5.60
2019,11,29,15,14,5.60
2019,11,29,15,15,5.60
2019,11,29,15,16,5.60
2019,11,29,15,17,5.60
2019,11,29,15,18,5.60
2019,11,29,15,19,5.60
2019,11,29,15,20,5.60
2019,11,29,15,21,5.60
2019,11,29,15,22,5.60
2019,11,29,15,23,5.60
2019,11,29,15,24,5.70
2019,11,29,15,25,5.70
2019,11,29,15,26,5.70
2019,11,29,15,27,5.70
2019,11,29,15,28,5.70
2019,11,29,15,29,5.70
2019,11,29,15,30,5.70
2019,11,29,15,31,5.60
2019,11,29,15,32,5.60
2019,11,29,15,33,5.60
2019,11,29,15,34,5.60
2019,11,29,15,35,5.60
2019,11,29,15,36,5.60
2019,11,29,15,37,5.60
2019,11,29,15,38,5.50
2019,11,29,15,39,5.50
2019,11,29,15,40,5.40
2019,11,29,15,41,5.30
2019,11,29,15,42,5.30
2019,11,29,15,43,5.30
2019,11,29,15,44,5.30
2019,11,29,15,45,5.40
2019,11,29,15,46,5.40
2019,11,29,15,47,5.40
2019,11,29,15,48,5.40
2019,11,29,15,49,5.40
2019,11,29,15,50,5.40
2019,11,29,15,51,5.40
2019,11,29,15,52,5.40
2019,11,29,15,53,5.40
2019,11,29,15,54,5.30
2019,11,29,15,55,5.30
2019,11,29,15,56,5.20
2019,11,29,15,57,5.20
2019,11,29,15,58,5.10
2019,11,29,15,59,5.10
2019,11,29,16,00,5.00
2019,11,29,16,01,4.90
2019,11,29,16,02,4.90
2019,11,29,16,03,4.80
2019,11,29,16,04,4.80
2019,11,29,16,05,4.70
2019,11,29,16,06,4.60
2019,11,29,16,07,4.60
2019,11,29,16,08,4.50
2019,11,29,16,09,4.50
2019,11,29,16,10,4.40
2019,11,29,16,11,4.30
2019,11,29,16,12,4.20
2019,11,29,16,13,4.20
2019,11,29,16,14,4.20
2019,11,29,16,15,4.20
2019,11,29,16,16,4.20
2019,11,29,16,17,4.10
2019,11,29,16,18,4.10
2019,11,29,16,19,4.10
2019,11,29,16,20,4.10
2019,11,29,16,21,4.00
2019,11,29,16,22,4.00
2019,11,29,16,23,3.90
2019,11,29,16,24,3.90
2019,11,29,16,25,3.80
2019,11,29,16,26,3.80
2019,11,29,16,27,3.80
2019,11,29,16,28,3.70
2019,11,29,16,29,3.70
2019,11,29,16,30,3.60
2019,11,29,16,31,3.50
2019,11,29,16,32,3.40
2019,11,29,16,33,3.30
2019,11,29,16,34,3.20
2019,11,29,16,35,3.10
2019,11,29,16,36,3.10
2019,11,29,16,37,3.00
2019,11,29,16,38,2.90
2019,11,29,16,39,2.90
2019,11,29,16,40,2.90
2019,11,29,16,41,2.80
2019,11,29,16,42,2.80
2019,11,29,16,43,2.80
2019,11,29,16,44,2.70
2019,11,29,16,45,2.70
2019,11,29,16,46,2.70
2019,11,29,16,47,2.70
2019,11,29,16,48,2.70
2019,11,29,16,49,2.60
2019,11,29,16,50,2.60
2019,11,29,16,51,2.50
2019,11,29,16,52,2.50
2019,11,29,16,53,2.50
2019,11,29,16,54,2.40
2019,11,29,16,55,2.40
2019,11,29,16,56,2.40
2019,11,29,16,57,2.30
2019,11,29,16,58,2.30
2019,11,29,16,59,2.30
2019,11,29,17,00,2.30
2019,11,29,17,01,2.30
2019,11,29,17,02,2.20
2019,11,29,17,03,2.20
2019,11,29,17,04,2.20
2019,11,29,17,05,2.20
2019,11,29,17,06,2.20
2019,11,29,17,07,2.10
2019,11,29,17,08,2.00
2019,11,29,17,09,1.90
2019,11,29,17,10,1.80
2019,11,29,17,11,1.80
2019,11,29,17,12,1.80
2019,11,29,17,13,1.80
2019,11,29,17,14,1.70
2019,11,29,17,15,1.70
2019,11,29,17,16,1.70
2019,11,29,17,17,1.60
2019,11,29,17,18,1.60
2019,11,29,17,19,1.50
2019,11,29,17,20,1.50
2019,11,29,17,21,1.40
2019,11,29,17,22,1.40
2019,11,29,17,23,1.30
2019,11,29,17,24,1.30
2019,11,29,17,25,1.30
2019,11,29,17,26,1.30
2019,11,29,17,27,1.30
2019,11,29,17,28,1.30
2019,11,29,17,29,1.20
2019,11,29,17,30,1.20
2019,11,29,17,31,1.20
2019,11,29,17,32,1.20
2019,11,29,17,33,1.10
2019,11,29,17,34,1.10
2019,11,29,17,35,1.00
2019,11,29,17,36,1.00
2019,11,29,17,37,1.00
2019,11,29,17,38,1.00
2019,11,29,17,39,0.90
2019,11,29,17,40,0.90
2019,11,29,17,41,0.90
2019,11,29,17,42,0.90
2019,11,29,17,43,0.90
2019,11,29,17,44,0.80
2019,11,29,17,45,0.80
2019,11,29,17,46,0.80
2019,11,29,17,47,0.80
2019,11,29,17,48,0.80
2019,11,29,17,49,0.80
2019,11,29,17,50,0.80
2019,11,29,17,51,0.80
2019,11,29,17,52,0.80
2019,11,29,17,53,0.70
2019,11,29,17,54,0.70
2019,11,29,17,55,0.70
2019,11,29,17,56,0.60